Location: Newark
(48.6461°N, 4.3644°W)
Time: 20:39:29
(UTC+00:00)

Vanguard 3 - Visible Passes

Search period start: 26 January 2020 00:00
Search period end: 05 February 2020 00:00
Orbit: 507 x 3264 km, 33.4° (Epoch: 26 January)

Date Brightness Start Highest point End Pass type
(mag) Time Alt. Az. Time Alt. Az. Time Alt. Az.
26 Jan 10.2 19:03:16 10° WSW 19:21:26 47° S 19:31:12 23° ESE visible
26 Jan 10.0 21:19:12 10° W 21:35:06 39° SSW 21:35:46 38° SSW visible
26 Jan 11.0 23:37:57 10° W 23:40:20 13° WSW 23:40:20 13° WSW visible
27 Jan 10.6 17:47:28 10° SW 18:05:24 45° SSE 18:20:40 10° ESE visible
27 Jan 10.0 20:02:05 10° WSW 20:19:51 45° S 20:25:58 33° SSE visible
27 Jan 10.5 22:19:12 10° W 22:30:32 28° SW 22:30:32 28° SW visible
28 Jan 10.4 18:45:38 10° WSW 19:04:00 48° S 19:16:11 18° ESE visible
28 Jan 10.1 21:01:29 10° W 21:17:53 38° SSW 21:20:46 36° S visible
28 Jan 11.0 23:20:37 10° W 23:25:20 15° WSW 23:25:20 15° WSW visible
29 Jan 10.7 17:29:58 10° SW 17:47:50 46° S 18:04:00 10° ESE visible
29 Jan 10.2 19:44:28 10° WSW 20:02:29 45° SSW 20:11:01 27° SE visible
29 Jan 10.4 22:01:35 10° W 22:15:19 28° SW 22:15:35 28° SW visible
30 Jan 10.5 18:28:09 10° WSW 18:46:30 49° S 19:01:18 12° ESE visible
30 Jan 10.2 20:43:52 10° W 21:00:32 38° SSW 21:05:52 31° S visible
30 Jan 10.9 23:03:24 10° W 23:10:27 16° SW 23:10:27 16° SW visible
31 Jan 10.7 17:12:39 10° WSW 17:30:14 48° S 17:47:10 10° ESE visible
31 Jan 10.5 19:26:57 10° WSW 19:45:01 45° SSW 19:56:12 20° SE visible
31 Jan 10.5 21:44:04 10° W 21:57:58 27° SW 22:00:47 26° SSW visible
01 Feb 10.6 18:10:49 10° WSW 18:28:55 49° S 18:45:15 10° ESE visible
01 Feb 10.4 20:26:21 10° W 20:43:05 37° SSW 20:51:11 24° SSE visible
01 Feb 11.0 22:46:23 10° W 22:54:44 15° SW 22:55:46 15° SW visible
02 Feb 10.6 19:09:36 10° W 19:27:27 44° SSW 19:41:38 13° SE visible
02 Feb 10.7 21:26:41 10° W 21:40:31 26° SW 21:46:13 21° SSW visible
03 Feb 10.7 17:53:40 10° WSW 18:11:19 49° S 18:28:19 10° ESE visible
03 Feb 10.7 20:08:59 10° W 20:25:31 35° SSW 20:36:45 17° SSE visible
03 Feb 11.1 22:29:40 10° WSW 22:37:18 14° SW 22:41:21 13° SW visible
04 Feb 10.8 18:52:23 10° W 19:09:50 43° SSW 19:25:44 10° SE visible
04 Feb 10.9 21:09:27 10° W 21:22:58 24° SW 21:31:57 15° S visible
